GW2591 Weather Reports


time (UTC)temp
C
wind
direction
speed
KPH
gust
KPH
rain 1hr
cm
rain 24hr
cm
rain mn
cm
humidity
%
barometer
mb
20260503032758 5 182 4.8 8.0 0.00 0.00 0.00 63 1016.3
20260503032257 5 191 4.8 8.0 0.00 0.00 0.00 63 1016.4
20260503031753 5 189 4.8 8.0 0.00 0.00 0.00 63 1016.3
20260503031252 5 186 6.4 8.0 0.00 0.00 0.00 64 1016.4
20260503030747 5 197 6.4 11.3 0.00 0.00 0.00 63 1016.3
20260503030244 5 174 4.8 9.7 0.00 0.00 0.00 62 1016.6
20260503025741 5 180 3.2 6.4 0.00 0.00 0.00 60 1016.4
20260503025238 5 170 6.4 8.0 0.00 0.00 0.00 60 1016.5
20260503024735 5 174 4.8 8.0 0.00 0.00 0.00 58 1016.5
20260503024232 5 180 4.8 8.0 0.00 0.00 0.00 58 1016.5
20260503023729 5 162 3.2 6.4 0.00 0.00 0.00 59 1016.5
20260503023226 5 190 4.8 8.0 0.00 0.00 0.00 59 1016.5
20260503022722 5 130 3.2 6.4 0.00 0.00 0.00 58 1016.5
20260503022222 6 180 4.8 6.4 0.00 0.00 0.00 57 1016.6
20260503021720 6 169 3.2 8.0 0.00 0.00 0.00 56 1016.6
20260503021215 6 174 3.2 6.4 0.00 0.00 0.00 56 1016.5
20260503020713 6 180 3.2 6.4 0.00 0.00 0.00 56 1016.4
20260503020211 6 176 4.8 8.0 0.00 0.00 0.00 56 1016.4
20260503015707 6 177 3.2 8.0 0.00 0.00 0.00 57 1016.6
20260503015204 5 158 3.2 4.8 0.00 0.00 0.00 60 1016.5
20260503014700 6 89 0.0 3.2 0.00 0.00 0.00 60 1016.3
20260503014158 6 141 0.0 4.8 0.00 0.00 0.00 57 1016.5
20260503013655 6 107 1.6 6.4 0.00 0.00 0.00 57 1016.4
20260503013153 6 164 1.6 4.8 0.00 0.00 0.00 54 1016.3
20260503012650 6 165 3.2 4.8 0.00 0.00 0.00 53 1016.3
20260503012147 6 170 1.6 4.8 0.00 0.00 0.00 52 1016.4
20260503011643 6 173 3.2 4.8 0.00 0.00 0.00 55 1016.5
20260503011140 6 154 4.8 4.8 0.00 0.00 0.00 55 1016.4
20260503010636 6 168 3.2 4.8 0.00 0.00 0.00 54 1016.4
20260503010134 6 179 3.2 4.8 0.00 0.00 0.00 56 1016.3
20260503005631 6 174 3.2 4.8 0.00 0.00 0.00 57 1016.3
20260503005128 6 175 1.6 4.8 0.00 0.00 0.00 55 1016.3
20260503004624 6 170 1.6 4.8 0.00 0.00 0.00 55 1016.4
20260503004123 7 223 0.0 3.2 0.00 0.00 0.00 55 1016.2
20260503003619 7 191 1.6 3.2 0.00 0.00 0.00 53 1016.4
20260503003116 7 281 1.6 3.2 0.00 0.00 0.00 50 1016.1
20260503002613 7 253 3.2 4.8 0.00 0.00 0.00 52 1016.1
20260503002110 7 274 3.2 4.8 0.00 0.00 0.00 55 1016.2
20260503001606 7 277 4.8 8.0 0.00 0.00 0.00 49 1016.2
20260503001103 7 10 0.0 4.8 0.00 0.00 0.00 44 1016.1
20260503000601 7 345 4.8 4.8 0.00 0.00 0.00 43 1016.2
20260503000058 7 337 4.8 6.4 0.00 0.00 0.00 46 1016.1
20260502235554 7 321 3.2 8.0 0.00 0.00 0.00 46 1016.2
20260502235052 7 286 3.2 8.0 0.00 0.00 0.00 45 1016.2
20260502234548 7 29 0.0 8.0 0.00 0.00 0.00 46 1016.1
20260502234046 7 272 1.6 8.0 0.00 0.00 0.00 47 1016.1
20260502233546 7 318 3.2 9.7 0.00 0.00 0.00 43 1016.1
20260502233043 7 312 3.2 9.7 0.00 0.00 0.00 42 1016.1
20260502232539 7 316 3.2 8.0 0.00 0.00 0.00 43 1016.1
20260502232037 7 328 8.0 17.7 0.00 0.00 0.00 42 1016.2
20260502231533 7 292 11.3 17.7 0.00 0.00 0.00 42 1016.0
20260502231031 7 288 6.4 12.9 0.00 0.00 0.00 41 1016.0
20260502230530 7 298 6.4 16.1 0.00 0.00 0.00 39 1016.2
20260502230028 7 313 6.4 11.3 0.00 0.00 0.00 43 1016.3
20260502225523 7 300 6.4 14.5 0.00 0.00 0.00 42 1016.2
20260502225020 7 326 16.1 16.1 0.00 0.00 0.00 41 1016.2
20260502224516 7 331 8.0 14.5 0.00 0.00 0.00 45 1016.2
20260502224014 7 317 11.3 14.5 0.00 0.00 0.00 45 1016.3
20260502223511 7 316 9.7 12.9 0.00 0.00 0.00 45 1016.3
20260502223009 7 296 8.0 19.3 0.00 0.00 0.00 46 1016.3
20260502222506 7 278 9.7 12.9 0.00 0.00 0.00 42 1016.4
20260502222003 7 299 6.4 14.5 0.00 0.00 0.00 45 1016.4
20260502221458 7 310 6.4 19.3 0.00 0.00 0.00 47 1016.4
20260502220956 7 327 11.3 17.7 0.00 0.00 0.00 44 1016.4
20260502220451 7 302 6.4 14.5 0.00 0.00 0.00 42 1016.4
20260502215948 7 275 9.7 17.7 0.00 0.00 0.00 44 1016.4
20260502215445 7 298 9.7 19.3 0.00 0.00 0.00 43 1016.3
20260502214942 7 306 8.0 24.1 0.00 0.00 0.00 44 1016.3
20260502214439 7 332 12.9 25.7 0.00 0.00 0.00 42 1016.2
20260502213936 7 299 8.0 20.9 0.00 0.00 0.00 45 1016.2
20260502213433 7 301 4.8 14.5 0.00 0.00 0.00 45 1016.3
20260502212932 7 322 11.3 20.9 0.00 0.00 0.00 42 1016.1
20260502212430 7 324 9.7 16.1 0.00 0.00 0.00 47 1016.3
20260502211927 7 354 8.0 24.1 0.00 0.00 0.00 45 1016.2
20260502211423 7 335 16.1 19.3 0.00 0.00 0.00 43 1016.1
20260502210920 7 317 11.3 19.3 0.00 0.00 0.00 46 1016.1
20260502210417 7 328 11.3 17.7 0.00 0.00 0.00 44 1016.2
20260502205914 7 295 4.8 14.5 0.00 0.00 0.00 46 1016.1
20260502205410 7 352 4.8 20.9 0.00 0.00 0.00 42 1016.1
20260502204908 7 330 14.5 25.7 0.00 0.00 0.00 43 1016.3
20260502204404 7 302 8.0 27.4 0.00 0.00 0.00 45 1016.2
20260502203902 7 331 17.7 27.4 0.00 0.00 0.00 48 1016.2
20260502203359 7 273 8.0 19.3 0.00 0.00 0.00 43 1016.3
20260502202855 7 321 12.9 25.7 0.00 0.00 0.00 48 1016.3
20260502202352 7 291 11.3 22.5 0.00 0.00 0.00 45 1016.3
20260502201850 7 324 22.5 32.2 0.00 0.00 0.00 44 1016.3
20260502201346 7 290 4.8 17.7 0.00 0.00 0.00 45 1016.4
20260502200843 7 300 8.0 25.7 0.00 0.00 0.00 49 1016.4
20260502200338 7 314 6.4 16.1 0.00 0.00 0.00 49 1016.5
20260502195837 7 295 12.9 24.1 0.00 0.00 0.00 44 1016.6
20260502195333 7 319 11.3 24.1 0.00 0.00 0.00 46 1016.6
20260502194830 7 308 9.7 17.7 0.00 0.00 0.00 49 1016.7
20260502194327 7 333 14.5 16.1 0.00 0.00 0.00 47 1016.6
20260502193822 7 295 14.5 22.5 0.00 0.00 0.00 43 1016.6
20260502193320 7 326 20.9 22.5 0.00 0.00 0.00 50 1016.7
20260502192815 7 322 27.4 30.6 0.00 0.00 0.00 43 1016.8
20260502192312 7 290 9.7 24.1 0.00 0.00 0.00 47 1016.8
20260502191810 7 316 6.4 30.6 0.00 0.00 0.00 43 1016.7
20260502191307 7 323 17.7 27.4 0.00 0.00 0.00 48 1016.7
20260502190805 7 309 14.5 24.1 0.00 0.00 0.00 46 1016.7
20260502190302 8 320 19.3 24.1 0.00 0.00 0.00 41 1016.9
20260502185757 7 17 1.6 12.9 0.00 0.00 0.00 44 1016.8
20260502185253 7 339 9.7 19.3 0.00 0.00 0.00 43 1017.0
20260502184749 7 284 9.7 24.1 0.00 0.00 0.00 45 1016.8
20260502184245 7 312 3.2 12.9 0.00 0.00 0.00 42 1017.0
20260502183742 7 327 19.3 30.6 0.00 0.00 0.00 43 1017.1
20260502183238 7 323 14.5 16.1 0.00 0.00 0.00 50 1017.3
20260502182733 6 306 8.0 16.1 0.00 0.00 0.00 46 1017.1
20260502182229 6 347 9.7 19.3 0.00 0.00 0.00 44 1017.0
20260502181726 6 349 9.7 25.7 0.00 0.00 0.00 46 1017.1
20260502181226 6 338 20.9 24.1 0.00 0.00 0.00 48 1017.3
20260502180722 6 321 12.9 22.5 0.00 0.00 0.00 48 1017.2
20260502180219 6 318 9.7 27.4 0.00 0.00 0.00 50 1017.3
20260502170138 6 330 12.9 24.1 0.00 0.00 0.00 51 1017.4
20260502164125 6 299 12.9 24.1 0.00 0.00 0.00 49 1017.7
20260502163621 6 340 6.4 27.4 0.00 0.00 0.00 52 1017.7
20260502163117 6 326 12.9 24.1 0.00 0.00 0.00 55 1017.8
20260502162614 6 327 19.3 20.9 0.00 0.00 0.00 54 1017.6
20260502162112 6 287 9.7 16.1 0.00 0.00 0.00 52 1017.7
20260502161608 6 324 9.7 25.7 0.00 0.00 0.00 52 1017.8
20260502161106 6 329 12.9 24.1 0.00 0.00 0.00 54 1018.0
20260502160604 6 6 11.3 25.7 0.00 0.00 0.00 52 1017.7
20260502152016 6 308 12.9 22.5 0.00 0.00 0.00 53 1017.6
20260502151513 6 319 19.3 24.1 0.00 0.00 0.00 54 1017.6
20260502151011 5 289 12.9 17.7 0.00 0.00 0.00 55 1017.6
20260502150508 5 290 6.4 32.2 0.00 0.00 0.00 59 1017.7
20260502130353 4 351 8.0 14.5 0.00 0.00 0.00 74 1017.1
20260502123336 2 317 8.0 19.3 0.00 0.00 0.00 76 1016.9
20260502122833 2 325 17.7 19.3 0.00 0.00 0.00 75 1016.9
20260502122328 2 339 17.7 20.9 0.00 0.00 0.00 76 1016.9
20260502121827 2 343 11.3 19.3 0.00 0.00 0.00 76 1017.0
20260502121324 2 337 9.7 20.9 0.00 0.00 0.00 75 1016.9
20260502120821 2 327 11.3 22.5 0.00 0.00 0.00 75 1016.9
20260502120317 2 312 17.7 20.9 0.00 0.00 0.00 75 1016.9
20260502115815 2 315 9.7 14.5 0.00 0.00 0.00 76 1017.0
20260502115312 2 323 12.9 19.3 0.00 0.00 0.00 76 1016.8
20260502114808 2 336 6.4 14.5 0.00 0.00 0.00 76 1017.0
20260502114305 2 321 4.8 14.5 0.00 0.00 0.00 77 1016.8
20260502113802 2 321 8.0 12.9 0.00 0.00 0.00 77 1016.9
20260502113300 2 312 6.4 14.5 0.00 0.00 0.00 78 1016.7
20260502112758 1 323 4.8 11.3 0.00 0.00 0.00 78 1016.6
20260502112255 1 298 3.2 9.7 0.00 0.00 0.00 79 1016.7
20260502111752 1 313 3.2 8.0 0.00 0.00 0.00 80 1016.7
20260502111250 1 319 0.0 4.8 0.00 0.00 0.00 80 1016.6
20260502110747 1 331 3.2 9.7 0.00 0.00 0.00 80 1016.6
20260502110244 1 313 3.2 14.5 0.00 0.00 0.00 80 1016.7
20260502105743 1 325 4.8 9.7 0.00 0.00 0.00 80 1016.4
20260502105238 1 330 8.0 14.5 0.00 0.00 0.00 79 1016.3
20260502104737 1 329 6.4 14.5 0.00 0.00 0.00 79 1016.2
20260502104234 1 330 9.7 14.5 0.00 0.00 0.00 79 1016.3
20260502103731 1 322 12.9 14.5 0.00 0.00 0.00 79 1016.3
20260502103229 1 332 14.5 17.7 0.00 0.00 0.00 78 1016.2
20260502102725 1 303 8.0 19.3 0.00 0.00 0.00 77 1016.2
20260502102222 1 333 9.7 19.3 0.00 0.00 0.00 77 1016.3
20260502101720 1 304 8.0 16.1 0.00 0.00 0.00 77 1016.2
20260502101218 1 324 11.3 17.7 0.00 0.00 0.00 76 1016.4
20260502100716 1 323 9.7 17.7 0.00 0.00 0.00 77 1016.3
20260502100214 1 317 11.3 14.5 0.00 0.00 0.00 78 1016.3
20260502091148 1 294 8.0 16.1 0.00 0.00 0.00 76 1015.9
20260502090645 1 271 20.9 20.9 0.00 0.00 0.00 75 1015.9
20260502090142 1 267 12.9 17.7 0.00 0.00 0.00 75 1016.0
20260502080105 2 298 8.0 19.3 0.00 0.00 0.00 74 1015.7
20260502071038 2 297 9.7 17.7 0.00 0.00 0.00 74 1015.7
20260502070536 2 265 9.7 17.7 0.00 0.00 0.00 74 1015.8
20260502070033 2 307 6.4 14.5 0.00 0.00 0.00 75 1015.7
20260502065532 2 267 6.4 17.7 0.00 0.00 0.00 75 1015.8
20260502065029 2 300 6.4 16.1 0.00 0.00 0.00 76 1015.7
20260502064527 2 284 6.4 12.9 0.00 0.00 0.00 76 1015.9
20260502064024 2 271 8.0 14.5 0.00 0.00 0.00 75 1015.9
20260502063522 2 289 11.3 14.5 0.00 0.00 0.00 75 1015.9
20260502063019 2 315 6.4 14.5 0.00 0.00 0.00 74 1015.7
20260502062516 2 280 4.8 14.5 0.00 0.00 0.00 74 1015.8
20260502062015 2 290 4.8 14.5 0.00 0.00 0.00 74 1016.0
20260502061512 2 305 3.2 14.5 0.00 0.00 0.00 75 1015.9
20260502061009 2 295 6.4 16.1 0.00 0.00 0.00 74 1015.9
20260502060504 2 291 8.0 12.9 0.00 0.00 0.00 74 1016.1
20260502060001 2 284 6.4 14.5 0.00 0.00 0.00 74 1015.8
20260502055458 3 329 4.8 14.5 0.00 0.00 0.00 75 1015.9
20260502054952 3 278 12.9 17.7 0.00 0.00 0.00 74 1015.9
20260502054449 3 274 4.8 11.3 0.00 0.00 0.00 74 1015.8
20260502053947 3 280 6.4 14.5 0.00 0.00 0.00 74 1015.8
20260502053443 3 284 6.4 14.5 0.00 0.00 0.00 74 1016.0
20260502052941 3 284 8.0 14.5 0.00 0.00 0.00 74 1015.9
20260502052439 3 309 6.4 12.9 0.00 0.00 0.00 74 1015.8
20260502051938 3 304 6.4 12.9 0.00 0.00 0.00 74 1015.8
20260502051435 3 301 8.0 16.1 0.00 0.00 0.00 74 1016.1
20260502050932 3 285 4.8 12.9 0.00 0.00 0.00 74 1015.9
20260502050429 3 325 8.0 14.5 0.00 0.00 0.00 74 1015.8
20260502045926 3 291 4.8 16.1 0.00 0.00 0.00 74 1016.0
20260502045422 3 269 6.4 16.1 0.00 0.00 0.00 74 1016.1
20260502044920 3 276 8.0 14.5 0.00 0.00 0.00 77 1016.2
20260502044415 3 263 8.0 14.5 0.00 0.00 0.00 78 1016.4
20260502043912 3 257 12.9 14.5 0.00 0.00 0.00 78 1016.2
20260502043410 3 259 11.3 12.9 0.00 0.00 0.00 79 1016.2
20260502042909 3 238 6.4 11.3 0.00 0.00 0.00 81 1016.2
20260502042407 4 248 8.0 11.3 0.00 0.00 0.00 81 1016.3
20260502041904 4 251 9.7 11.3 0.00 0.00 0.00 81 1016.2
20260502041401 4 238 6.4 11.3 0.00 0.00 0.00 82 1016.2
20260502040858 4 204 3.2 4.8 0.00 0.00 0.00 82 1016.2
20260502040355 4 168 1.6 4.8 0.00 0.00 0.00 82 1016.3
20260502035851 4 204 3.2 3.2 0.00 0.89 0.89 81 1016.2
20260502035348 5 153 1.6 4.8 0.00 0.89 0.89 81 1016.3
20260502034845 5 199 3.2 6.4 0.00 0.89 0.89 81 1016.1
20260502034344 5 236 3.2 4.8 0.00 0.89 0.89 81 1016.1
20260502033842 5 176 3.2 6.4 0.00 0.89 0.89 82 1016.0
20260502033339 5 169 3.2 4.8 0.00 0.89 0.89 83 1015.9